Oakland, MD

10:54 PM EDT on September 20, 2017 (GMT -0400)
Oakland

Weather History for K2G4 - October, 2012

Change the Weather History Date:

Saturday, October 6, 2012

  Actual Average (KMGW) Record (KMGW)
Temperature  
Mean Temperature 48 °F -  
Max Temperature 57 °F 66 °F 88 °F (1959)
Min Temperature 39 °F 44 °F 29 °F (1964)
Degree Days  
Heating Degree Days 17    
Moisture  
Dew Point 42 °F    
Average Humidity 85    
Maximum Humidity 100    
Minimum Humidity 54    
Precipitation  
Precipitation 0.00 in - - ()
Sea Level Pressure  
Sea Level Pressure 29.99 in    
Wind  
Wind Speed 8 mph (West)    
Max Wind Speed 15 mph    
Max Gust Speed 22 mph    
Visibility 7 miles    
Events Fog    
Averages and records for this station are not official NWS values.
T = Trace of Precipitation, MM = Missing Value Source: NWS Daily Summary

Daily Weather History Graph

Daily Weather History Graph

Search for Another Location

Airport or City:

Trip Planner

Search our weather history database for the weather conditions in past years. The results will help you decide how hot, cold, wet, or windy it might be!

Date:

Astronomy

Oct. 06, 2012 Rise Set
Actual Time 7:18 AM EDT 6:51 PM EDT
Civil Twilight 6:51 AM EDT 7:18 PM EDT
Nautical Twilight 6:20 AM EDT 7:49 PM EDT
Astronomical Twilight 5:49 AM EDT 8:20 PM EDT
Moon 11:06 PM EDT (10/6) 1:10 PM EDT (10/6)
Length of Visible Light 12h 26m
Length of Day
11h 32m
Waning Gibbous, 65% of the Moon is Illuminated
Oct 6
Waning Gibbous
Oct 8
Last Quarter
Oct 15
New
Oct 21
First Quarter
Oct 29
Full

Hourly Weather History & Observations

Time (EDT) Temp. Windchill Dew Point Humidity Pressure Visibility Wind Dir Wind Speed Gust Speed Precip Events Conditions
12:10 AM 53.6 °F - 51.8 °F 94% 29.99 in 10.0 mi South 8.1 mph - N/A   Clear
12:30 AM 53.6 °F - 51.8 °F 94% 29.99 in 10.0 mi South 8.1 mph - N/A   Clear
12:50 AM 53.6 °F - 51.8 °F 94% 29.98 in 10.0 mi SSW 8.1 mph - N/A   Clear
1:10 AM 53.6 °F - 51.8 °F 94% 29.97 in 10.0 mi SSW 8.1 mph - N/A   Clear
1:35 AM 55.4 °F - 51.8 °F 88% 29.96 in 10.0 mi SSW 8.1 mph - N/A   Clear
1:55 AM 55.4 °F - 51.8 °F 88% 29.95 in 10.0 mi SSW 9.2 mph - N/A   Clear
2:15 AM 53.6 °F - 51.8 °F 94% 29.95 in 10.0 mi SSW 8.1 mph - N/A   Clear
3:00 AM 53.6 °F - 51.8 °F 94% 29.93 in 10.0 mi SSW 8.1 mph - N/A   Clear
3:20 AM 53.6 °F - 51.8 °F 94% 29.92 in 10.0 mi SSW 9.2 mph - N/A   Clear
3:40 AM 53.6 °F - 51.8 °F 94% 29.92 in 10.0 mi SW 9.2 mph - N/A   Clear
4:05 AM 55.4 °F - 51.8 °F 88% 29.91 in 10.0 mi SW 9.2 mph 18.4 mph N/A   Clear
4:25 AM 55.4 °F - 51.8 °F 88% 29.90 in 10.0 mi SW 11.5 mph 17.3 mph N/A   Clear
4:45 AM 55.4 °F - 51.8 °F 88% 29.90 in 10.0 mi SW 10.4 mph 17.3 mph N/A   Clear
5:50 AM 57.2 °F - 53.6 °F 88% 29.91 in 10.0 mi WSW 10.4 mph 16.1 mph N/A   Mostly Cloudy
6:10 AM 57.2 °F - 51.8 °F 82% 29.91 in 10.0 mi WSW 15.0 mph 21.9 mph N/A   Overcast
6:30 AM 55.4 °F - 53.6 °F 94% 29.91 in 10.0 mi WSW 10.4 mph 19.6 mph N/A   Overcast
6:55 AM 53.6 °F - 53.6 °F 100% 29.91 in 7.0 mi WSW 8.1 mph - N/A   Overcast
7:15 AM 53.6 °F - 53.6 °F 100% 29.91 in 3.0 mi WNW 5.8 mph - N/A   Overcast
7:35 AM 50.0 °F - 50.0 °F 100% 29.93 in 0.2 mi WNW 9.2 mph - N/A Fog Fog
7:55 AM 48.2 °F - 48.2 °F 100% 29.93 in 0.2 mi West 4.6 mph - N/A Fog Fog
8:20 AM 48.2 °F - 48.2 °F 100% 29.92 in 0.2 mi West 8.1 mph - N/A Fog Fog
8:40 AM 46.4 °F 41.9 °F 46.4 °F 100% 29.93 in 0.2 mi West 9.2 mph 16.1 mph N/A Fog Fog
9:00 AM 46.4 °F 41.5 °F 46.4 °F 100% 29.94 in 0.2 mi WNW 10.4 mph 16.1 mph N/A Fog Fog
9:20 AM 44.6 °F 40.2 °F 44.6 °F 100% 29.94 in 0.2 mi NW 8.1 mph - N/A Fog Fog
9:45 AM 42.8 °F 37.5 °F 42.8 °F 100% 29.95 in 0.2 mi WNW 9.2 mph - N/A Fog Fog
10:05 AM 42.8 °F 37.5 °F 42.8 °F 100% 29.96 in 0.2 mi WNW 9.2 mph - N/A Fog Fog
10:25 AM 42.8 °F 37.5 °F 42.8 °F 100% 29.97 in 0.2 mi WNW 9.2 mph 16.1 mph N/A Fog Fog
10:45 AM 41.0 °F 33.9 °F 41.0 °F 100% 29.98 in 0.2 mi WNW 12.7 mph 18.4 mph N/A Fog Fog
11:10 AM 41.0 °F 35.2 °F 41.0 °F 100% 29.99 in 0.2 mi WNW 9.2 mph 17.3 mph N/A Fog Fog
11:30 AM 41.0 °F 36.4 °F 41.0 °F 100% 29.99 in 0.2 mi WNW 6.9 mph - N/A Fog Fog
11:50 AM 41.0 °F 35.8 °F 41.0 °F 100% 29.99 in 0.2 mi WNW 8.1 mph - N/A Fog Fog
12:10 PM 39.2 °F 33.0 °F 39.2 °F 100% 30.00 in 0.2 mi WNW 9.2 mph - N/A Fog Fog
12:35 PM 41.0 °F 36.4 °F 41.0 °F 100% 30.01 in 0.2 mi West 6.9 mph - N/A Fog Fog
12:55 PM 41.0 °F 36.4 °F 41.0 °F 100% 30.01 in 0.2 mi WNW 6.9 mph - N/A Fog Fog
1:15 PM 41.0 °F 35.8 °F 41.0 °F 100% 30.01 in 0.2 mi West 8.1 mph - N/A Fog Fog
1:35 PM 41.0 °F 34.3 °F 41.0 °F 100% 30.01 in 0.2 mi WNW 11.5 mph 18.4 mph N/A Fog Fog
2:00 PM 42.8 °F 39.3 °F 42.8 °F 100% 30.01 in 7.0 mi West 5.8 mph - N/A   Overcast
2:20 PM 44.6 °F 39.7 °F 44.6 °F 100% 30.01 in 10.0 mi West 9.2 mph 17.3 mph N/A   Overcast
2:40 PM 44.6 °F 40.7 °F 41.0 °F 87% 30.01 in 10.0 mi WNW 6.9 mph 16.1 mph N/A   Mostly Cloudy
3:00 PM 46.4 °F 41.5 °F 41.0 °F 81% 30.01 in 10.0 mi West 10.4 mph - N/A   Mostly Cloudy
3:25 PM 48.2 °F - 39.2 °F 71% 30.01 in 10.0 mi WNW 9.2 mph 17.3 mph N/A   Scattered Clouds
3:45 PM 48.2 °F - 37.4 °F 66% 30.00 in 10.0 mi WNW 6.9 mph 16.1 mph N/A   Clear
4:05 PM 50.0 °F - 37.4 °F 62% 30.00 in 10.0 mi West 9.2 mph - N/A   Clear
4:25 PM 48.2 °F - 35.6 °F 62% 29.99 in 10.0 mi WNW 8.1 mph - N/A   Clear
4:50 PM 48.2 °F - 33.8 °F 58% 29.99 in 10.0 mi WNW 8.1 mph 17.3 mph N/A   Clear
5:10 PM 48.2 °F - 32.0 °F 54% 29.99 in 10.0 mi West 9.2 mph - N/A   Clear
5:30 PM 46.4 °F 42.9 °F 32.0 °F 57% 29.99 in 10.0 mi WNW 6.9 mph 18.4 mph N/A   Clear
5:50 PM 46.4 °F 44.3 °F 32.0 °F 57% 30.00 in 10.0 mi WNW 4.6 mph - N/A   Clear
6:15 PM 46.4 °F 42.9 °F 32.0 °F 57% 30.01 in 10.0 mi WNW 6.9 mph - N/A   Clear
6:35 PM 44.6 °F 41.4 °F 33.8 °F 66% 30.02 in 10.0 mi West 5.8 mph - N/A   Clear
7:15 PM 42.8 °F 39.3 °F 33.8 °F 70% 30.03 in 10.0 mi West 5.8 mph - N/A   Clear
7:40 PM 42.8 °F 39.3 °F 33.8 °F 70% 30.03 in 10.0 mi West 5.8 mph - N/A   Clear
8:00 PM 42.8 °F 40.1 °F 33.8 °F 70% 30.04 in 10.0 mi West 4.6 mph - N/A   Clear
8:20 PM 42.8 °F 40.1 °F 33.8 °F 70% 30.05 in 10.0 mi West 4.6 mph - N/A   Clear
8:40 PM 42.8 °F 39.3 °F 33.8 °F 70% 30.06 in 10.0 mi West 5.8 mph - N/A   Clear
9:05 PM 41.0 °F 39.0 °F 33.8 °F 76% 30.06 in 10.0 mi West 3.5 mph - N/A   Clear
9:25 PM 41.0 °F 38.0 °F 33.8 °F 76% 30.06 in 10.0 mi West 4.6 mph - N/A   Clear
9:45 PM 41.0 °F 38.0 °F 33.8 °F 76% 30.06 in 10.0 mi West 4.6 mph - N/A   Clear
10:05 PM 41.0 °F 37.1 °F 33.8 °F 76% 30.08 in 10.0 mi West 5.8 mph - N/A   Clear
10:30 PM 41.0 °F 37.1 °F 33.8 °F 76% 30.08 in 10.0 mi West 5.8 mph - N/A   Clear
10:50 PM 41.0 °F 37.1 °F 33.8 °F 76% 30.08 in 10.0 mi West 5.8 mph - N/A   Clear
11:10 PM 41.0 °F 38.0 °F 33.8 °F 76% 30.09 in 10.0 mi West 4.6 mph - N/A   Clear
11:30 PM 41.0 °F - 33.8 °F 76% 30.08 in 10.0 mi Calm Calm - N/A   Clear
11:55 PM 41.0 °F 38.0 °F 33.8 °F 76% 30.08 in 10.0 mi West 4.6 mph - N/A   Clear